Simultaneous Nadir Overpasses (SNOs) Predictions

Prediction of SNOs between GOES-15 and NPP Satellite Orbit:

Table of predicted SNOs for the next 14.0 days since TLE Epoch: 1/1/2016
Index Date Time (GOES-15) GOES-15 Lat,Lon NPP Lat,Lon Distance(km) Time Diff (sec)
1 01/02/2016 10:39:09 -0.09,-134.52 0.74,-138.26 425.91 80
2 01/03/2016 10:23:03 -0.08,-134.47 -0.27,-133.72 85.34 80
3 01/05/2016 22:23:32 0.08,-134.31 0.06,-134.48 20.13 80
4 01/06/2016 22:07:26 0.07,-134.25 1.01,-129.94 490.92 80
5 01/08/2016 10:26:33 -0.08,-134.20 0.13,-135.22 115.68 80
6 01/09/2016 10:10:27 -0.07,-134.14 -0.82,-130.67 394.50 80
7 01/10/2016 22:29:42 0.08,-134.01 -0.33,-135.98 224.03 80
8 01/11/2016 22:13:35 0.07,-133.95 0.62,-131.43 286.02 80
9 01/13/2016 10:32:42
